Voltar ao catálogo

STARLINK-30914

AtivoComunicaçõesVLEO
NORAD 58377·PAYLOAD·🇺🇸 United States

Lançado Nov 20, 2023 de Vandenberg Space Force Base

Loading…

Próximas Passagens (próximas 24 horas)

TLE

AtualizadoSource: CelesTrak SupGP

Época: Sep 14, 2026, 20:47 UTC

1 58377C 23178D   26257.86645833  .00026883  00000+0  79400-3 0  2572
2 58377  53.1583 197.9972 0001311  84.6394  23.7044 15.34387096    18

Acompanhe STARLINK-30914 em tempo real com AllMySat

Download on the App Store